When you browse on this site, cookies collect data to enhance your experience and personalize the content and advertising you see.
Visit our Privacy Policy to learn more. By continuing to use the site, you agree to this use of cookies and data.
  • In United Kingdom
  • List of Countries
  • For 7 days
  • Water Temperature
  • Weather Map
  • Weather Widgets
  • user-avatar
    Login

    Hourly Weather Ali Bayramli

    Today, 5 December, Thursday

    Time Temperature Precipitation Wind Pressure Humidity
    00:00 +3°C° 0 mm 9 mps 766 mmHg 57%
    01:00 +3°C° 0 mm 10 mps 766 mmHg 59%
    02:00 +2°C° 0 mm 10 mps 767 mmHg 61%
    03:00 +2°C° 0 mm 10 mps 768 mmHg 66%
    04:00 +2°C° 0.4 mm 10 mps 768 mmHg 69%
    05:00 +1°C° 0.4 mm 9 mps 768 mmHg 72%
    06:00 +1°C° 0.4 mm 9 mps 769 mmHg 74%
    07:00 +1°C° 0.3 mm 9 mps 769 mmHg 71%
    08:00 +2°C° 0.3 mm 9 mps 770 mmHg 68%
    09:00 +2°C° 0 mm 9 mps 771 mmHg 65%
    10:00 +4°C° 0.1 mm 8 mps 771 mmHg 63%
    11:00 +4°C° 0.1 mm 7 mps 771 mmHg 62%
    12:00 +5°C° 0.1 mm 6 mps 771 mmHg 61%
    13:00 +6°C° 0 mm 5 mps 771 mmHg 61%
    14:00 +6°C° 0 mm 4 mps 771 mmHg 61%
    15:00 +7°C° 0 mm 2 mps 771 mmHg 62%
    16:00 +7°C° 0 mm 2 mps 771 mmHg 65%
    17:00 +6°C° 0 mm 2 mps 771 mmHg 68%
    18:00 +6°C° 0 mm 2 mps 772 mmHg 71%
    19:00 +5°C° 0 mm 3 mps 772 mmHg 74%
    20:00 +5°C° 0 mm 3 mps 772 mmHg 77%
    21:00 +4°C° 0 mm 3 mps 772 mmHg 80%
    22:00 +4°C° 0 mm 3 mps 772 mmHg 80%
    23:00 +4°C° 0 mm 3 mps 772 mmHg 81%

    Tomorrow, 6 December, Friday

    Time Temperature Precipitation Wind Pressure Humidity
    00:00 +4°C° 0 mm 3 mps 772 mmHg 81%
    01:00 +4°C° 0 mm 3 mps 772 mmHg 79%
    02:00 +4°C° 0 mm 3 mps 772 mmHg 78%
    03:00 +4°C° 0 mm 3 mps 772 mmHg 76%
    04:00 +4°C° 0 mm 3 mps 772 mmHg 75%
    05:00 +4°C° 0 mm 3 mps 772 mmHg 73%
    06:00 +4°C° 0 mm 3 mps 772 mmHg 72%
    07:00 +5°C° 0 mm 3 mps 772 mmHg 71%
    08:00 +6°C° 0 mm 2 mps 772 mmHg 69%
    09:00 +6°C° 0 mm 2 mps 773 mmHg 68%
    10:00 +7°C° 0 mm 2 mps 772 mmHg 67%
    11:00 +7°C° 0 mm 2 mps 772 mmHg 65%
    12:00 +8°C° 0 mm 1 mps 772 mmHg 64%
    13:00 +7°C° 0 mm 2 mps 771 mmHg 65%
    14:00 +7°C° 0 mm 2 mps 771 mmHg 66%
    15:00 +7°C° 0 mm 2 mps 771 mmHg 67%
    16:00 +8°C° 0 mm 1 mps 770 mmHg 67%
    17:00 +8°C° 0 mm 1 mps 770 mmHg 67%
    18:00 +8°C° 0 mm 1 mps 770 mmHg 67%
    19:00 +9°C° 0 mm 1 mps 770 mmHg 67%
    20:00 +9°C° 0 mm 1 mps 770 mmHg 67%
    21:00 +9°C° 0 mm 1 mps 771 mmHg 67%
    22:00 +8°C° 0 mm 2 mps 770 mmHg 67%
    23:00 +8°C° 0 mm 2 mps 770 mmHg 67%

    Day after tomorrow, 7 December, Saturday

    Time Temperature Precipitation Wind Pressure Humidity
    00:00 +8°C° 0 mm 2 mps 769 mmHg 67%
    01:00 +8°C° 0 mm 2 mps 769 mmHg 66%
    02:00 +8°C° 0 mm 2 mps 769 mmHg 65%
    03:00 +8°C° 0 mm 2 mps 769 mmHg 65%
    04:00 +7°C° 0 mm 2 mps 769 mmHg 64%
    05:00 +7°C° 0 mm 2 mps 768 mmHg 63%
    06:00 +7°C° 0 mm 2 mps 768 mmHg 62%
    07:00 +7°C° 0 mm 2 mps 768 mmHg 61%
    08:00 +8°C° 0 mm 2 mps 768 mmHg 60%
    09:00 +8°C° 0 mm 2 mps 768 mmHg 59%
    10:00 +8°C° 0 mm 2 mps 768 mmHg 58%
    11:00 +9°C° 0 mm 2 mps 767 mmHg 57%
    12:00 +9°C° 0 mm 2 mps 767 mmHg 56%
    13:00 +9°C° 0 mm 2 mps 766 mmHg 56%
    14:00 +10°C° 0 mm 1 mps 766 mmHg 56%
    15:00 +11°C° 0 mm 1 mps 766 mmHg 56%
    16:00 +10°C° 0 mm 1 mps 766 mmHg 58%
    17:00 +9°C° 0 mm 0 mps 765 mmHg 59%
    18:00 +9°C° 0 mm 0 mps 765 mmHg 61%
    19:00 +9°C° 0 mm 0 mps 765 mmHg 62%
    20:00 +9°C° 0 mm 0 mps 765 mmHg 62%
    21:00 +9°C° 0 mm 0 mps 765 mmHg 63%
    22:00 +9°C° 0 mm 1 mps 764 mmHg 64%
    23:00 +9°C° 0 mm 1 mps 764 mmHg 64%

    8 December, Sunday

    Time Temperature Precipitation Wind Pressure Humidity
    00:00 +9°C° 0 mm 1 mps 764 mmHg 65%
    01:00 +9°C° 0 mm 1 mps 763 mmHg 65%
    02:00 +8°C° 0 mm 2 mps 763 mmHg 66%
    03:00 +7°C° 0 mm 2 mps 762 mmHg 66%
    04:00 +7°C° 0 mm 2 mps 762 mmHg 67%
    05:00 +7°C° 0 mm 2 mps 761 mmHg 67%
    06:00 +6°C° 0 mm 2 mps 761 mmHg 68%
    07:00 +7°C° 0 mm 2 mps 761 mmHg 65%
    08:00 +7°C° 0 mm 2 mps 761 mmHg 62%
    09:00 +8°C° 0 mm 2 mps 760 mmHg 60%
    10:00 +8°C° 0 mm 2 mps 760 mmHg 57%
    11:00 +9°C° 0 mm 2 mps 759 mmHg 54%
    12:00 +10°C° 0 mm 3 mps 758 mmHg 51%
    13:00 +10°C° 0 mm 2 mps 758 mmHg 50%
    14:00 +12°C° 0 mm 2 mps 757 mmHg 50%
    15:00 +12°C° 0 mm 2 mps 757 mmHg 49%
    16:00 +10°C° 0 mm 2 mps 757 mmHg 51%
    17:00 +10°C° 0 mm 2 mps 757 mmHg 53%
    18:00 +9°C° 0 mm 2 mps 757 mmHg 55%
    19:00 +9°C° 0 mm 2 mps 757 mmHg 56%
    20:00 +10°C° 0 mm 1 mps 757 mmHg 57%
    21:00 +10°C° 0 mm 1 mps 756 mmHg 58%
    22:00 +10°C° 0 mm 1 mps 756 mmHg 58%
    23:00 +9°C° 0 mm 1 mps 756 mmHg 59%

    9 December, Monday

    Time Temperature Precipitation Wind Pressure Humidity
    00:00 +8°C° 0 mm 2 mps 756 mmHg 59%
    01:00 +8°C° 0.1 mm 2 mps 756 mmHg 62%
    02:00 +8°C° 0.1 mm 2 mps 756 mmHg 65%
    03:00 +8°C° 0.1 mm 2 mps 756 mmHg 67%
    04:00 +9°C° 0.1 mm 1 mps 756 mmHg 70%
    05:00 +8°C° 0.1 mm 1 mps 756 mmHg 72%
    06:00 +8°C° 0.1 mm 1 mps 757 mmHg 75%
    07:00 +9°C° 0.1 mm 1 mps 757 mmHg 74%
    08:00 +9°C° 0.1 mm 1 mps 757 mmHg 73%
    09:00 +8°C° 0.1 mm 0 mps 758 mmHg 72%
    10:00 +10°C° 0 mm 1 mps 758 mmHg 67%
    11:00 +11°C° 0 mm 1 mps 758 mmHg 63%
    12:00 +12°C° 0 mm 1 mps 758 mmHg 58%
    13:00 +12°C° 0 mm 2 mps 758 mmHg 57%
    14:00 +12°C° 0 mm 2 mps 758 mmHg 55%
    15:00 +13°C° 0 mm 2 mps 758 mmHg 54%
    16:00 +12°C° 0 mm 2 mps 758 mmHg 58%
    17:00 +10°C° 0 mm 2 mps 759 mmHg 62%
    18:00 +9°C° 0 mm 3 mps 759 mmHg 66%
    19:00 +9°C° 0 mm 2 mps 759 mmHg 67%
    20:00 +9°C° 0 mm 2 mps 759 mmHg 67%
    21:00 +10°C° 0 mm 1 mps 760 mmHg 67%
    22:00 +9°C° 0 mm 1 mps 760 mmHg 69%
    23:00 +9°C° 0 mm 1 mps 760 mmHg 70%

    10 December, Tuesday

    Time Temperature Precipitation Wind Pressure Humidity
    00:00 +9°C° 0 mm 1 mps 760 mmHg 71%
    01:00 +9°C° 0 mm 1 mps 760 mmHg 72%
    02:00 +8°C° 0 mm 1 mps 760 mmHg 74%
    03:00 +8°C° 0 mm 1 mps 760 mmHg 75%
    04:00 +8°C° 0 mm 1 mps 760 mmHg 75%
    05:00 +9°C° 0 mm 1 mps 760 mmHg 75%
    06:00 +8°C° 0 mm 0 mps 760 mmHg 75%
    07:00 +9°C° 0 mm 1 mps 760 mmHg 74%
    08:00 +10°C° 0 mm 1 mps 761 mmHg 73%
    09:00 +10°C° 0 mm 1 mps 761 mmHg 73%
    10:00 +11°C° 0 mm 1 mps 760 mmHg 69%
    11:00 +12°C° 0 mm 1 mps 760 mmHg 65%
    12:00 +12°C° 0 mm 1 mps 760 mmHg 62%
    13:00 +13°C° 0 mm 1 mps 759 mmHg 59%
    14:00 +13°C° 0 mm 1 mps 759 mmHg 57%
    15:00 +13°C° 0 mm 1 mps 759 mmHg 55%
    16:00 +12°C° 0 mm 1 mps 759 mmHg 62%
    17:00 +11°C° 0 mm 1 mps 759 mmHg 69%
    18:00 +10°C° 0 mm 1 mps 760 mmHg 76%
    19:00 +10°C° 0 mm 1 mps 760 mmHg 80%
    20:00 +9°C° 0 mm 1 mps 760 mmHg 84%
    21:00 +9°C° 0 mm 1 mps 760 mmHg 88%
    22:00 +8°C° 0 mm 0 mps 760 mmHg 88%
    23:00 +7°C° 0 mm 0 mps 760 mmHg 89%
    Show more